Regional Weather Roundup
Issued by NWS

Home | Current Version | Previous Version | Graphics & Text | Print | Product List | Glossary Off
Versions: 1 2 3 4 5 6 7 8 9 10 11 12 13 14 15 16 17 18 19 20 21 22 23 24 25 26 27 28 29 30 31 32 33 34 35 36 37 38 39 40 41 42 43 44 45 46 47 48 49 50

000
ASUS43 KTOP 261759
RWRKS

WEATHER ROUNDUP FOR KANSAS
NATIONAL WEATHER SERVICE GOODLAND KS
100 PM CDT THU MAY 26 2016

NOTE:  "FAIR" INDICATES FEW OR NO CLOUDS BELOW 12,000 FEET WITH NO
SIGNIFICANT WEATHER AND/OR OBSTRUCTIONS TO VISIBILITY.

KSZ001>006-013>018-027>032-041>047-261900-
NORTHWEST KANSAS

CITY           SKY/WX    TMP DP  RH WIND       PRES   REMARKS
GOODLAND       MOSUNNY   70  53  54 NE22G29   29.84F
6HR MIN TEMP:  50; 6HR MAX TEMP:  71;

HAYS           CLOUDY    72  66  83 E12       29.75F
HILL CITY      CLOUDY    75  64  68 E12       29.80F
6HR MIN TEMP:  56; 6HR MAX TEMP:  75; 6HR PCP: TRACE;

RUSSELL        CLOUDY    77  70  79 SE13      29.74F
6HR MIN TEMP:  59; 6HR MAX TEMP:  77;

$$

KSZ061>065-074>080-084>089-261900-
SOUTHWEST KANSAS

CITY           SKY/WX    TMP DP  RH WIND       PRES   REMARKS
DODGE CITY     SUNNY     79  57  46 S14       29.76F
6HR MIN TEMP:  64; 6HR MAX TEMP:  79;

ELKHART          N/A     78  48  34 N2          N/A
GARDEN CITY    MOSUNNY   71  59  65 SE10      29.79R
GREAT BEND     CLOUDY    77  64  65 S10       29.75S
LIBERAL        CLOUDY    79  46  31 S6        29.76F
$$

KSZ066>073-081>083-090>101-261900-
SOUTHEAST KANSAS

CITY           SKY/WX    TMP DP  RH WIND       PRES   REMARKS
CHANUTE        PTSUNNY   84  72  67 S20G29    29.84F
6HR MIN TEMP:  75; 6HR MAX TEMP:  85; 6HR PCP: TRACE;

COFFEYVILLE    MOSUNNY   85  74  69 S16G28    29.84F
6HR MIN TEMP:  75; 6HR MAX TEMP:  85;

HUTCHINSON     CLOUDY    83  72  69 S13       29.75F
6HR MIN TEMP:  71; 6HR MAX TEMP:  86;

MEDICINE LODGE   N/A     84  69  60 S18G24    29.75S
NEWTON         PTSUNNY   82  70  65 S10G21    29.80F
PARSONS        MOSUNNY   85  74  69 S15G25    29.85F
6HR MIN TEMP:  76; 6HR MAX TEMP:  85;

WICHITA INTL   PTSUNNY   82  72  71 S15       29.76F
6HR MIN TEMP:  76; 6HR MAX TEMP:  84;

WICHITA JABRA  PTSUNNY   81  72  74 S16       29.78F
6HR MIN TEMP:  74; 6HR MAX TEMP:  86;

WINFIELD       CLOUDY    83  74  74 S16G22    29.80F
6HR MIN TEMP:  74; 6HR MAX TEMP:  84;

$$

KSZ007>012-019>026-033>040-048>060-102>105-261900-
NORTHEAST KANSAS

CITY           SKY/WX    TMP DP  RH WIND       PRES   REMARKS
CONCORDIA      CLOUDY    80  71  74 SE10      29.77F
6HR MIN TEMP:  60; 6HR MAX TEMP:  80;

EMPORIA        CLOUDY    82  72  71 S23G29    29.81S
6HR MIN TEMP:  74; 6HR MAX TEMP:  83;

LAWRENCE       MOSUNNY   82  73  74 SE22      29.83F
6HR MIN TEMP:  66; 6HR MAX TEMP:  82; 6HR PCP:  0.14;

MANHATTAN      MOSUNNY   83  73  72 SE12G20   29.76F
6HR MIN TEMP:  71; 6HR MAX TEMP:  84;

OLATHE IND     MOSUNNY   81  72  74 SE15      29.86F
6HR MIN TEMP:  64; 6HR MAX TEMP:  81; 6HR PCP: TRACE;

OLATHE EXE     CLOUDY    79  71  76 SE13      29.86F
6HR MIN TEMP:  62; 6HR MAX TEMP:  79;

SALINA         CLOUDY    82  71  69 S13       29.77F
6HR MIN TEMP:  65; 6HR MAX TEMP:  85;

TOPEKA BILLARD MOSUNNY   81  73  76 SE18G29   29.81F
6HR MIN TEMP:  67; 6HR MAX TEMP:  81; 6HR PCP:  0.11;

TOPEKA FORBES  CLOUDY    81  73  76 SE20      29.81F
6HR MIN TEMP:  67; 6HR MAX TEMP:  82; 6HR PCP:  0.04;

$$



USA.gov is the U.S. government's official web portal to all federal, state and local government web resources and services.